Content
SEND FEEDBACK

Daily
Averages
Monthly
Summary
Canada

MONTREAL TRUDEAU AIRPORT, QUEBEC


Home > North America > Canada > Quebec
Elevation: 118 feet     Latitude: 45 28N     Longitude: 73 45W

WEATHER
 
SELECT A DAY
Number of Records: 198,744;   Date Range: 1/1/95 - 9/15/14
 
SHARE

PRINT THIS DATA

[ ← Previous Day ]
WEATHER ALMANAC - JUNE 24, 2013
[ Next Day → ]
[ °C ]   °F
We're sorry. There is no daily almanac available for Montreal Trudeau Airport, Quebec on June 24, 2013.
WEATHER BY HOUR - JUNE 24, 2013
[ °C ]   °F
Local TimeTemperatureDewpointHumidityBarometerVisibilityWind DirectionWind SpeedGust SpeedPrecipitationEventsConditions
12:04 AM73.4 °F68.0 °F83 %29.91 in8.0 miSSE (160°)10.4 mphRainLight Rain Showers
12:11 AM71.6 °F68.0 °F88 %29.92 in8.0 miSouth (170°)9.2 mphRain-ThunderstormLight Thunderstorms and Rain
12:36 AM71.6 °F69.8 °F94 %29.92 in8.0 miSouth (190°)6.9 mphRainLight Rain Showers
1:00 AM71.6 °F69.8 °F94 %29.92 in8.0 miSSW (210°)6.9 mphRainLight Rain Showers
1:52 AM71.6 °F69.8 °F94 %29.90 in10.0 miWSW (250°)8.1 mphOvercast
2:00 AM71.0 °F69.0 °F92 %29.90 in10.0 miWSW (250°)8.1 mphRainLight Rain Showers
2:00 AM71.6 °F69.8 °F94 %29.90 in10.0 miWSW (250°)6.9 mphOvercast
3:00 AM0.0 °F0.0 °F10.0 miSW (230°)8.1 mphMostly Cloudy
3:12 AM71.6 °F69.8 °F94 %29.91 in10.0 miWSW (250°)6.9 mphMostly Cloudy
4:00 AM71.6 °F69.8 °F94 %29.91 in10.0 miWSW (240°)10.4 mphScattered Clouds
4:52 AM69.8 °F68.0 °F94 %29.92 in10.0 miWSW (240°)9.2 mphRainLight Rain Showers
5:00 AM69.8 °F68.0 °F94 %29.92 in10.0 miWSW (250°)10.4 mphOvercast
6:00 AM69.8 °F68.0 °F94 %29.93 in12.0 miWSW (250°)11.5 mphMostly Cloudy
7:00 AM71.6 °F68.0 °F88 %29.94 in15.0 miWSW (250°)11.5 mphPartly Cloudy
8:00 AM73.0 °F69.0 °F84 %29.95 in15.0 miWSW (250°)10.4 mphPartly Cloudy
8:00 AM73.4 °F69.8 °F88 %29.95 in15.0 miWest (260°)11.5 mphMostly Cloudy
9:00 AM75.2 °F68.0 °F78 %29.94 in15.0 miWest (270°)10.4 mphMostly Cloudy
9:25 AM75.2 °F69.8 °F83 %29.94 in15.0 miWest (270°)8.1 mphPartly Cloudy
10:00 AM77.0 °F69.8 °F78 %29.93 in15.0 miWSW (250°)12.7 mphScattered Clouds
11:00 AM78.8 °F69.8 °F74 %29.93 in15.0 miWSW (240°)15.0 mphPartly Cloudy
12:00 PM80.6 °F73.4 °F79 %29.91 in15.0 miSSW (200°)8.1 mphScattered Clouds
1:00 PM82.4 °F71.6 °F70 %29.91 in15.0 miSW (230°)16.1 mphScattered Clouds
2:00 PM84.2 °F71.6 °F66 %29.89 in15.0 miSW (220°)12.7 mph20.7 mphMostly Cloudy
3:00 PM84.2 °F71.6 °F66 %29.86 in15.0 miSW (220°)17.3 mph24.2 mphMostly Cloudy
4:00 PM84.2 °F71.6 °F66 %29.83 in12.0 miSW (220°)13.8 mph21.9 mphScattered Clouds
5:00 PM86.0 °F69.8 °F58 %29.81 in12.0 miSW (220°)18.4 mph25.3 mphScattered Clouds
5:34 PM84.2 °F69.8 °F62 %29.81 in10.0 miSW (230°)20.7 mph27.6 mphThunderstormThunderstorm
5:40 PM82.4 °F62.6 °F51 %29.85 in8.0 miWest (270°)34.5 mph47.2 mphRain-ThunderstormLight Thunderstorms and Rain
6:00 PM69.8 °F64.4 °F83 %29.85 in7.0 miWest (280°)18.4 mph34.5 mphRain-ThunderstormLight Thunderstorms and Rain
7:00 PM69.8 °F64.4 °F83 %29.84 in12.0 miSSW (200°)6.9 mphRain-ThunderstormLight Thunderstorms and Rain
7:42 PM69.8 °F64.4 °F83 %29.85 in15.0 miSSW (200°)17.3 mphRainLight Rain Showers
8:00 PM69.0 °F65.0 °F84 %29.85 in15.0 miSSW (200°)19.6 mphRainLight Rain
8:00 PM69.8 °F64.4 °F83 %29.85 in15.0 miSSW (210°)17.3 mph26.5 mphRainLight Rain Showers
8:42 PM69.8 °F66.2 °F88 %29.85 in15.0 miSSW (200°)15.0 mphMostly Cloudy
9:00 PM69.8 °F66.2 °F88 %29.86 in15.0 miSSW (210°)13.8 mph19.6 mphMostly Cloudy
10:00 PM69.8 °F64.4 °F83 %29.85 in15.0 miSW (220°)9.2 mphClear
11:00 PM68.0 °F64.4 °F88 %29.85 in15.0 miWest (260°)4.6 mphClear
Hourly data recorded from CYUL, located miles away from Montreal Trudeau Airport, Quebec







STORIES FROM OUR PARTNERS